Location: Colleton State Park
(33.0623°N, 80.6164°W)
Time: 06:39:58
(UTC-04:00)

Envisat - Visible Passes

Search period start: 26 May 2019 00:00
Search period end: 05 June 2019 00:00
Orbit: 764 x 766 km, 98.2° (Epoch: 25 May)

Date Brightness Start Highest point End Pass type
(mag) Time Alt. Az. Time Alt. Az. Time Alt. Az.
26 May 5.6 21:06:06 10° SW 21:09:23 17° W 21:12:40 10° NW visible
29 May 5.5 20:54:09 10° SW 20:58:04 22° W 21:02:00 10° NW visible
31 May 5.9 21:22:07 10° WSW 21:23:48 12° W 21:25:29 10° WNW visible
03 Jun 5.7 21:09:31 10° SW 21:12:28 15° W 21:15:25 10° WNW visible
